Temp
-5 -5 -5 -5 -5 -5 -5 -4 -4 -4 -4 -4 -4 -4 -4 -4 -4 -4 -4 -4 -5 -5 -5 -5 -5 -5 -5 -4 -5 -5 -5 -5 -5 -5 -5 -5 -6 -5 -5 -5 -5 -5 -6 -6 -5
-5 -5 -5 -5 -5 -5 -5 -5 -4 -4 -4 -5 -4 -4 -4 -4 -4 -3 -4 -4 -4 -4 -5 -5 -5 -5 -5 -4 -5 -5 -5 -5 -5 -6 -6 -5 -5 -6 -5 -5 -5 -6 -5 -6 -5
-5 -5 -5 -5 -5 -5 -5 -5 -5 -5 -5 -4 -5 -5 -5 -4 -4 -4 -4 -4 -5 -4 -4 -4 -4 -5 -5 -4 -5 -5 -6 -5 -5 -7 -6 -5 -5 -5 -6 -5 -5 -5 -5 -6 -6
-6 -6 -5 -5 -5 -5 -5 -5 -5 -5 -5 -5 -5 -5 -5 -5 -4 -4 -4 -4 -5 -4 -4 -4 -4 -4 -5 -5 -5 -5 -5 -5 -5 -5 -6 -5 -5 -5 -5 -5 -4 -5 -5 -6 -6
-7 -7 -6 -6 -6 -6 -6 -6 -6 -5 -5 -5 -5 -5 -5 -5 -4 -5 -4 -4 -5 -5 -4 -4 -4 -4 -4 -5 -5 -6 -5 -6 -5 -6 -6 -5 -4 -4 -5 -4 -4 -5 -5 -6 -5
-7 -7 -6 -6 -6 -6 -6 -6 -6 -6 -6 -6 -6 -6 -5 -5 -4 -5 -5 -4 -5 -5 -5 -5 -5 -5 -4 -5 -5 -7 -6 -6 -5 -5 -5 -5 -4 -4 -5 -5 -5 -5 -5 -6 -6
-7 -7 -6 -6 -6 -6 -6 -6 -6 -5 -5 -6 -6 -6 -6 -5 -5 -5 -5 -5 -5 -5 -5 -5 -5 -5 -4 -4 -4 -7 -6 -6 -5 -5 -4 -5 -5 -5 -5 -5 -5 -5 -6 -6 -6
-7 -6 -6 -6 -6 -6 -6 -6 -6 -5 -5 -5 -5 -6 -6 -6 -6 -5 -6 -5 -5 -5 -5 -5 -5 -4 -4 -4 -4 -6 -5 -5 -6 -5 -4 -6 -5 -5 -5 -5 -5 -5 -6 -6 -7
-7 -7 -7 -7 -6 -6 -6 -6 -6 -6 -6 -5 -5 -5 -6 -6 -6 -6 -6 -6 -6 -6 -5 -5 -4 -5 -5 -4 -4 -5 -5 -5 -5 -5 -5 -5 -6 -5 -6 -6 -5 -6 -6 -6 -6
-7 -7 -7 -7 -6 -6 -6 -6 -6 -6 -6 -6 -6 -6 -6 -6 -6 -6 -6 -6 -6 -6 -6 -5 -5 -5 -4 -4 -4 -4 -5 -5 -5 -5 -5 -5 -6 -6 -5 -5 -6 -6 -7 -6 -6
-7 -7 -6 -6 -6 -6 -6 -6 -6 -6 -6 -6 -6 -6 -6 -6 -6 -6 -6 -6 -6 -6 -6 -6 -5 -5 -6 -6 -6 -5 -5 -5 -6 -6 -6 -6 -7 -7 -6 -4 -5 -6 -7 -7 -6
-7 -7 -6 -6 -6 -6 -6 -6 -6 -6 -7 -6 -6 -6 -6 -6 -6 -6 -6 -6 -6 -6 -6 -6 -5 -6 -6 -6 -6 -6 -6 -6 -7 -7 -6 -7 -7 -7 -6 -5 -6 -6 -7 -7 -6
-8 -7 -7 -7 -7 -7 -7 -7 -8 -9 -9 -8 -8 -8 -7 -7 -7 -6 -6 -6 -6 -6 -6 -6 -6 -6 -7 -6 -6 -6 -6 -6 -7 -8 -7 -7 -6 -7 -6 -5 -4 -5 -6 -7 -6
-8 -8 -8 -8 -10 -11 -12 -12 -13 -14 -12 -12 -12 -11 -11 -10 -9 -8 -8 -7 -7 -7 -7 -7 -6 -6 -6 -7 -7 -6 -6 -7 -8 -8 -7 -7 -5 -6 -6 -6 -5 -6 -5 -6 -7
-9 -10 -10 -12 -13 -14 -15 -15 -14 -14 -15 -14 -14 -14 -13 -13 -11 -10 -10 -10 -8 -8 -8 -6 -7 -6 -6 -6 -7 -7 -7 -7 -8 -9 -9 -8 -7 -6 -6 -5 -5 -6 -6 -6 -7
-10 -12 -13 -14 -14 -14 -14 -14 -14 -14 -14 -14 -14 -14 -14 -14 -14 -13 -13 -12 -11 -10 -9 -8 -7 -7 -6 -8 -8 -8 -8 -8 -8 -9 -9 -8 -7 -4 -4 -4 -6 -6 -7 -7 -6
-12 -13 -13 -14 -14 -14 -14 -14 -14 -14 -14 -14 -14 -14 -14 -14 -14 -14 -14 -14 -13 -12 -11 -9 -8 -8 -7 -8 -8 -8 -8 -9 -9 -9 -5 -7 -8 -3 -4 -5 -6 -6 -7 -7 -7
-13 -13 -14 -14 -14 -14 -14 -14 -14 -14 -14 -14 -14 -14 -14 -15 -14 -14 -14 -14 -14 -13 -12 -11 -9 -10 -8 -8 -9 -8 -8 -8 -7 -6 -5 -7 -5 -1 -4 -6 -7 -7 -7 -7 -8
-14 -14 -14 -14 -14 -14 -14 -14 -14 -14 -14 -15 -15 -15 -15 -15 -15 -15 -15 -15 -15 -16 -14 -12 -11 -10 -11 -9 -9 -9 -8 -8 -8 -7 -6 -6 -6 -3 -4 -6 -7 -7 -7 -7 -7
-14 -14 -14 -14 -14 -14 -15 -15 -15 -15 -15 -16 -16 -16 -16 -16 -16 -16 -16 -16 -16 -17 -16 -14 -12 -12 -12 -11 -10 -9 -9 -9 -8 -7 -6 -6 -6 -3 -3 -5 -7 -7 -7 -7 -8
-14 -14 -14 -14 -14 -15 -15 -15 -16 -16 -16 -16 -16 -17 -17 -17 -17 -17 -17 -17 -17 -17 -17 -16 -14 -13 -13 -12 -12 -11 -10 -9 -9 -8 -6 -5 -5 -5 -4 -5 -7 -7 -7 -7 -7
-15 -14 -14 -14 -15 -15 -16 -15 -16 -17 -17 -17 -17 -18 -18 -18 -18 -18 -18 -18 -17 -18 -17 -17 -16 -14 -14 -14 -12 -13 -10 -9 -8 -7 -6 -6 -5 -5 -6 -6 -7 -8 -8 -8 -7
-15 -14 -14 -15 -15 -16 -16 -16 -16 -17 -18 -18 -18 -19 -19 -19 -19 -19 -20 -19 -18 -18 -18 -17 -17 -16 -14 -14 -14 -13 -11 -10 -8 -9 -7 -6 -4 -6 -5 -6 -6 -7 -8 -8 -8
-14 -14 -14 -15 -15 -15 -16 -16 -17 -17 -18 -19 -19 -20 -20 -21 -21 -21 -21 -20 -20 -20 -20 -18 -17 -17 -15 -15 -15 -13 -12 -11 -9 -8 -7 -6 -5 -6 -6 -6 -6 -7 -8 -8 -8
-15 -15 -15 -15 -15 -15 -16 -17 -17 -18 -19 -20 -21 -21 -22 -22 -22 -21 -22 -22 -21 -22 -22 -22 -19 -18 -17 -16 -15 -13 -12 -11 -9 -8 -7 -7 -6 -5 -7 -6 -7 -7 -8 -8 -7
-15 -15 -15 -15 -15 -16 -16 -17 -18 -19 -20 -21 -22 -22 -22 -22 -22 -22 -23 -23 -23 -24 -24 -24 -21 -19 -17 -16 -15 -14 -12 -12 -10 -8 -7 -7 -6 -7 -8 -7 -7 -7 -7 -8 -7
-16 -16 -15 -15 -15 -16 -17 -18 -19 -20 -21 -22 -23 -23 -23 -23 -23 -23 -23 -24 -24 -24 -24 -24 -24 -19 -17 -17 -15 -14 -13 -12 -11 -9 -8 -8 -7 -7 -9 -9 -7 -7 -7 -7 -7
Height
5858 5858 5857 5856 5855 5854 5854 5854 5853 5852 5852 5852 5851 5852 5852 5853 5852 5853 5855 5858 5858 5860 5861 5863 5866 5868 5870 5872 5873 5874 5877 5877 5878 5879 5881 5881 5882 5883 5883 5884 5885 5887 5888 5889 5890
5854 5853 5853 5852 5851 5851 5850 5850 5849 5849 5849 5849 5849 5848 5848 5848 5848 5850 5853 5853 5854 5855 5857 5859 5862 5865 5868 5871 5873 5873 5875 5877 5878 5877 5879 5879 5880 5882 5883 5883 5885 5886 5887 5888 5892
5850 5849 5849 5848 5847 5846 5846 5845 5845 5845 5845 5845 5846 5846 5845 5845 5844 5846 5849 5850 5849 5851 5853 5856 5858 5863 5866 5869 5871 5872 5872 5876 5876 5876 5877 5879 5879 5880 5881 5882 5884 5886 5887 5887 5892
5847 5845 5845 5843 5842 5841 5841 5840 5839 5839 5840 5840 5841 5842 5841 5840 5841 5843 5844 5846 5846 5847 5850 5854 5857 5860 5863 5866 5868 5869 5869 5871 5875 5875 5877 5879 5880 5880 5880 5882 5883 5884 5887 5890 5889
5843 5842 5840 5839 5837 5836 5835 5835 5835 5835 5834 5835 5835 5837 5836 5835 5836 5837 5837 5840 5841 5842 5846 5848 5852 5855 5859 5861 5865 5867 5866 5865 5872 5874 5875 5879 5879 5879 5882 5882 5882 5884 5886 5889 5889
5839 5838 5836 5834 5832 5831 5830 5831 5829 5829 5829 5830 5830 5830 5830 5829 5830 5833 5833 5834 5836 5837 5840 5843 5845 5846 5850 5854 5859 5861 5861 5861 5866 5873 5874 5877 5879 5879 5881 5881 5881 5884 5886 5888 5889
5834 5832 5831 5829 5827 5825 5823 5824 5822 5822 5823 5824 5825 5824 5823 5824 5824 5825 5828 5829 5831 5832 5834 5835 5837 5840 5845 5849 5852 5854 5858 5859 5863 5869 5872 5876 5878 5878 5878 5879 5880 5883 5886 5887 5889
5829 5826 5825 5823 5821 5818 5817 5816 5814 5813 5814 5816 5817 5818 5817 5817 5816 5819 5821 5823 5825 5826 5827 5829 5832 5835 5838 5843 5846 5849 5852 5856 5860 5866 5869 5875 5877 5876 5878 5879 5881 5883 5883 5885 5887
5822 5819 5817 5815 5813 5810 5809 5807 5806 5804 5805 5806 5808 5810 5810 5810 5809 5811 5812 5815 5816 5818 5820 5821 5826 5831 5833 5836 5841 5841 5845 5856 5856 5862 5865 5870 5874 5876 5877 5879 5880 5881 5883 5885 5886
5815 5811 5808 5806 5804 5802 5799 5797 5796 5794 5795 5796 5797 5801 5801 5800 5799 5802 5804 5806 5807 5808 5810 5814 5820 5826 5829 5832 5838 5840 5847 5852 5853 5857 5862 5866 5870 5873 5874 5876 5878 5879 5882 5884 5885
5806 5801 5798 5794 5792 5790 5788 5786 5784 5783 5781 5785 5786 5786 5786 5787 5787 5789 5794 5796 5798 5800 5803 5807 5811 5821 5832 5831 5834 5835 5841 5846 5850 5853 5856 5862 5865 5871 5872 5873 5875 5876 5878 5881 5883
5796 5790 5785 5781 5778 5775 5772 5768 5763 5766 5763 5768 5769 5771 5772 5772 5773 5775 5782 5785 5788 5791 5793 5797 5804 5819 5817 5820 5823 5826 5831 5838 5845 5846 5849 5856 5862 5862 5868 5870 5869 5872 5875 5877 5880
5783 5776 5771 5764 5760 5757 5753 5750 5745 5743 5746 5745 5748 5753 5754 5756 5757 5759 5765 5770 5774 5778 5784 5788 5801 5802 5806 5812 5815 5819 5824 5832 5840 5841 5842 5848 5850 5853 5863 5865 5866 5868 5870 5873 5876
5771 5764 5759 5754 5750 5742 5738 5736 5732 5731 5732 5733 5735 5737 5737 5738 5741 5743 5746 5755 5758 5764 5770 5775 5787 5789 5795 5801 5807 5813 5824 5824 5828 5830 5832 5839 5841 5849 5856 5862 5865 5867 5868 5869 5873
5761 5755 5750 5743 5739 5737 5733 5730 5727 5725 5722 5723 5722 5723 5725 5725 5726 5728 5732 5736 5743 5748 5754 5767 5778 5779 5785 5797 5797 5813 5810 5816 5819 5821 5824 5826 5830 5842 5847 5852 5860 5864 5866 5866 5869
5751 5746 5741 5738 5734 5731 5726 5722 5720 5718 5714 5715 5715 5715 5716 5714 5715 5716 5716 5720 5726 5731 5738 5749 5761 5768 5774 5780 5787 5799 5800 5803 5805 5807 5802 5816 5818 5831 5840 5850 5858 5861 5862 5863 5866
5742 5736 5733 5731 5727 5723 5718 5715 5712 5708 5707 5707 5706 5705 5704 5703 5701 5703 5706 5706 5708 5715 5722 5732 5746 5752 5756 5768 5774 5781 5786 5790 5792 5787 5788 5809 5807 5822 5837 5846 5854 5857 5860 5863 5864
5733 5730 5726 5722 5718 5715 5711 5708 5703 5700 5698 5696 5695 5693 5691 5690 5689 5690 5692 5694 5694 5698 5706 5714 5728 5736 5746 5752 5763 5769 5775 5779 5780 5781 5789 5800 5790 5812 5832 5840 5847 5852 5855 5854 5857
5726 5724 5719 5715 5710 5706 5703 5698 5692 5689 5687 5684 5681 5679 5678 5677 5676 5678 5678 5680 5681 5685 5690 5698 5708 5719 5728 5737 5747 5757 5759 5775 5777 5781 5787 5786 5793 5815 5822 5831 5840 5847 5850 5852 5856
5721 5716 5711 5707 5702 5698 5693 5687 5680 5676 5674 5670 5667 5666 5663 5663 5663 5664 5664 5666 5668 5673 5676 5681 5691 5702 5714 5723 5734 5748 5755 5759 5763 5768 5773 5777 5786 5804 5815 5826 5835 5839 5846 5850 5854
5715 5709 5703 5698 5693 5688 5682 5676 5670 5665 5660 5656 5653 5653 5651 5649 5648 5648 5649 5652 5655 5661 5663 5667 5672 5690 5699 5709 5727 5734 5738 5748 5756 5762 5768 5772 5780 5801 5811 5821 5827 5835 5843 5847 5852
5707 5702 5695 5690 5684 5677 5671 5663 5658 5653 5647 5641 5638 5637 5636 5634 5634 5633 5634 5637 5639 5643 5650 5655 5657 5666 5684 5699 5712 5717 5730 5737 5743 5751 5756 5764 5776 5794 5804 5815 5822 5829 5838 5844 5849
5701 5695 5687 5682 5676 5669 5662 5654 5647 5640 5635 5629 5624 5623 5621 5618 5619 5619 5619 5622 5623 5627 5635 5641 5643 5649 5672 5687 5694 5702 5714 5726 5733 5737 5744 5757 5770 5787 5797 5806 5814 5820 5828 5837 5843
5695 5689 5681 5674 5667 5659 5652 5644 5637 5628 5622 5617 5613 5609 5608 5607 5606 5606 5606 5607 5611 5615 5618 5624 5630 5635 5654 5673 5678 5691 5702 5714 5720 5728 5739 5748 5768 5781 5787 5797 5807 5814 5822 5828 5833
5689 5683 5674 5667 5660 5651 5643 5634 5625 5618 5610 5604 5601 5598 5596 5595 5594 5594 5594 5593 5599 5601 5602 5603 5609 5619 5640 5657 5664 5680 5693 5703 5711 5722 5727 5745 5761 5772 5779 5788 5797 5805 5811 5818 5826
5685 5678 5671 5665 5658 5649 5638 5628 5617 5607 5599 5593 5589 5586 5584 5583 5583 5583 5583 5583 5585 5588 5590 5591 5597 5605 5628 5647 5658 5671 5685 5694 5703 5715 5722 5739 5755 5763 5770 5777 5787 5794 5802 5809 5816
5682 5676 5669 5663 5654 5645 5632 5619 5608 5597 5592 5584 5580 5577 5575 5574 5573 5573 5571 5572 5575 5577 5578 5583 5585 5598 5623 5636 5647 5663 5675 5685 5695 5703 5717 5733 5749 5756 5762 5769 5777 5785 5792 5802 5809
Wind_Speed
18 17 17 17 17 17 15 14 14 14 13 11 11 10 13 13 14 14 13 18 16 17 14 16 19 18 15 10 9 10 10 6 4 5 10 18 13 11 12 11 10 11 10 8 15
20 20 20 20 20 19 19 18 17 16 15 13 12 12 13 16 18 17 14 15 18 20 22 21 21 20 16 14 11 10 13 11 8 9 10 16 18 11 7 10 10 13 12 14 11
20 21 21 21 21 20 20 21 21 20 19 18 16 14 15 16 20 20 17 16 17 19 22 20 19 18 17 15 14 15 16 14 12 14 10 15 12 7 9 8 11 11 10 17 10
19 19 20 20 20 20 21 21 22 22 22 22 21 18 18 18 23 20 20 19 20 20 20 22 20 19 17 15 17 19 19 19 14 13 11 16 12 14 12 10 10 9 10 14 18
18 18 18 19 20 18 18 17 19 20 22 22 23 23 23 24 23 20 24 23 23 24 21 22 25 27 23 23 20 20 22 22 17 20 17 16 20 18 8 7 9 9 12 15 16
22 22 21 22 22 22 23 22 23 23 21 20 21 22 25 30 29 24 24 24 26 27 24 23 24 31 33 31 25 26 29 28 23 18 19 13 19 16 10 11 8 5 9 15 17
27 27 26 26 27 27 29 29 29 28 25 23 23 23 24 28 32 31 28 27 26 29 30 29 29 31 31 32 32 32 31 31 25 19 18 10 20 14 11 7 7 9 9 8 11
31 32 31 32 33 34 35 34 34 34 32 30 27 27 29 27 30 33 32 31 30 30 33 34 33 32 34 33 36 35 35 32 29 24 21 14 14 13 9 10 8 8 10 11 11
34 35 34 34 34 36 37 38 38 39 40 38 36 34 33 33 35 32 34 34 36 34 34 37 35 34 33 36 35 42 38 27 30 27 24 20 15 17 10 10 11 9 6 9 7
34 36 37 36 33 34 37 40 41 44 44 43 42 41 41 41 41 39 37 35 38 41 40 38 36 34 35 35 33 34 32 30 32 30 27 24 19 20 19 18 18 12 8 10 5
36 38 41 41 42 42 44 43 45 48 49 47 46 47 48 48 47 46 43 42 40 44 44 41 39 31 23 27 29 34 35 34 34 33 31 26 23 24 24 24 21 14 12 15 9
39 42 44 46 49 52 54 58 61 57 53 54 51 50 50 53 53 52 50 48 48 45 45 47 41 27 34 35 34 37 36 37 36 39 38 34 27 30 28 28 26 21 20 14 13
45 48 50 53 57 61 61 60 56 53 49 47 45 44 46 50 53 56 55 54 52 52 47 45 39 40 37 38 39 38 36 34 33 41 42 38 39 39 28 33 31 24 21 15 14
47 51 54 57 54 43 37 35 33 28 36 35 35 35 36 41 47 52 56 56 57 56 54 52 44 48 44 41 41 40 28 33 38 42 45 41 42 37 31 28 32 24 22 18 15
49 52 52 37 27 21 24 27 28 28 32 30 25 19 21 29 38 43 48 52 56 57 60 56 49 49 50 42 42 31 35 34 38 44 46 47 47 37 36 33 27 28 23 19 18
51 45 29 22 25 26 34 34 34 34 38 35 30 29 28 33 33 34 37 47 50 57 60 60 56 53 53 50 44 38 40 39 41 48 58 50 51 41 36 31 27 29 23 21 18
47 28 20 25 31 33 29 28 27 30 31 32 33 34 39 39 40 38 35 38 50 53 57 63 59 61 60 56 52 48 48 47 48 58 60 50 55 38 34 31 31 29 28 22 18
29 23 26 29 27 27 29 30 30 31 31 34 38 40 38 37 39 40 39 35 47 52 55 61 65 65 63 60 57 54 54 55 58 58 55 52 60 35 32 33 32 32 32 32 28
23 28 28 27 29 31 32 33 36 35 36 38 39 38 37 37 42 43 42 40 41 52 54 59 66 69 68 66 62 59 61 54 56 56 53 57 55 33 35 35 42 33 34 34 29
25 30 30 31 32 33 33 34 37 37 36 38 38 37 36 38 43 45 45 43 44 49 53 58 64 68 69 66 66 62 61 57 59 60 59 58 54 39 34 33 41 39 39 35 28
30 30 33 34 34 33 32 33 32 36 38 38 38 36 37 40 42 47 48 48 45 51 52 54 63 63 69 71 64 64 68 62 56 58 58 57 53 40 35 31 40 41 40 38 32
32 33 35 35 33 32 33 35 35 34 35 39 37 35 37 40 42 46 50 49 48 48 56 57 59 65 67 67 66 69 65 67 65 62 60 57 52 38 36 33 37 40 38 36 31
33 33 34 33 31 30 31 32 34 35 32 34 34 35 38 37 40 42 42 49 51 50 51 60 65 64 61 64 68 70 71 67 67 64 64 57 50 41 38 39 41 40 39 35 33
33 31 34 31 31 33 33 33 33 35 35 31 31 33 35 34 34 37 37 40 43 45 48 57 67 69 62 63 70 68 75 69 71 68 63 60 44 42 38 43 45 42 40 41 39
31 31 28 30 33 35 34 34 35 34 31 28 27 29 29 30 31 33 36 41 40 44 45 50 64 74 60 58 67 65 72 72 72 69 64 54 42 37 41 44 47 47 45 45 41
31 27 25 28 32 35 34 33 34 34 30 26 27 25 27 28 28 31 37 38 39 38 38 41 46 66 62 50 61 68 68 71 71 68 65 53 41 35 37 47 50 50 48 48 48
25 22 24 30 34 38 38 35 34 36 25 23 22 22 20 25 27 32 33 28 28 32 32 35 26 51 54 49 60 66 64 75 71 70 62 50 39 40 40 45 49 55 54 50 55
Wind_Direction
288 288 287 287 290 293 295 297 295 295 294 290 281 255 249 246 246 238 233 233 234 239 241 241 229 230 226 227 230 216 205 227 265 234 241 215 197 199 186 189 184 172 155 150 156
288 288 286 284 282 280 282 281 281 284 285 284 279 276 256 245 245 247 232 234 234 230 221 230 222 222 218 215 219 224 215 220 242 237 207 190 200 207 208 193 186 175 154 129 168
287 287 287 287 284 282 280 279 277 272 271 271 271 270 269 258 250 248 238 237 237 227 233 222 223 219 223 218 217 227 223 216 228 202 197 200 197 188 204 212 179 185 174 143 165
289 287 285 284 283 281 278 277 276 276 270 267 263 262 262 259 256 257 250 238 239 242 228 228 223 219 226 227 223 218 229 221 208 198 208 211 228 233 211 209 187 188 177 164 150
304 301 297 295 284 277 278 280 279 273 274 269 265 259 255 256 257 252 248 241 236 242 229 225 220 222 218 227 223 225 230 230 218 211 232 234 232 222 189 190 185 180 180 174 175
311 308 305 300 295 281 285 290 290 287 276 274 271 262 255 252 256 247 250 245 240 239 236 224 217 218 216 214 212 217 221 224 223 218 217 235 219 192 153 126 110 162 184 185 181
307 307 302 299 296 292 289 290 291 288 281 277 275 274 264 255 252 252 248 247 243 238 234 229 223 223 219 215 212 216 219 227 235 227 225 236 197 173 165 152 119 154 158 176 195
307 304 302 300 297 292 289 287 284 282 278 275 273 269 267 263 256 249 249 248 247 243 239 234 231 229 221 219 215 217 223 219 225 228 222 198 209 200 192 178 158 149 146 154 180
304 302 299 297 295 294 288 284 285 283 280 275 274 268 266 264 261 255 248 243 244 245 243 240 233 229 227 225 220 221 224 221 228 224 225 220 216 209 218 214 175 151 161 158 195
304 302 300 297 297 297 291 285 280 281 279 274 274 274 267 263 259 256 250 246 242 241 242 242 240 235 231 232 234 233 229 224 230 231 227 222 229 222 216 199 189 187 220 200 167
310 306 301 298 291 288 293 289 285 284 279 275 271 270 267 263 259 255 251 244 244 242 242 244 241 239 246 239 233 237 232 230 224 231 232 231 228 214 221 218 195 214 191 197 217
313 310 307 302 299 296 294 295 293 289 286 281 274 267 262 257 256 253 249 247 244 242 241 240 240 238 233 227 221 229 229 229 225 226 228 227 221 229 222 224 199 196 184 205 218
318 314 312 311 308 304 301 297 295 291 286 282 275 266 257 252 250 250 247 243 242 241 240 241 238 234 234 232 228 224 224 224 227 228 233 224 222 225 222 218 228 206 189 210 209
319 316 314 313 311 310 305 299 290 285 281 279 280 273 264 252 247 245 245 241 238 237 235 236 232 231 227 228 230 228 227 222 220 226 233 230 226 223 219 225 222 213 211 197 175
318 319 319 321 323 310 310 304 296 293 295 299 296 277 276 265 252 246 244 241 236 233 233 236 229 233 229 227 228 220 225 221 222 226 230 228 230 213 212 210 206 209 206 193 174
319 324 314 310 309 307 304 301 292 288 281 289 296 289 284 286 275 254 256 242 237 233 229 228 227 228 229 222 223 215 219 217 216 220 226 225 233 210 207 203 197 193 197 188 178
323 320 310 305 305 306 305 305 301 285 284 281 287 287 284 279 277 270 257 264 240 235 229 226 222 224 228 222 220 215 215 216 216 219 225 221 232 217 200 194 185 198 202 195 190
322 317 312 311 305 305 303 299 293 289 282 281 283 285 281 275 271 269 267 267 248 236 233 227 219 222 224 225 219 217 217 221 220 222 226 221 228 219 188 192 196 193 196 198 194
319 316 313 310 301 304 301 299 296 292 286 283 282 281 278 271 266 264 262 262 260 239 239 231 223 218 221 221 220 215 216 219 226 230 231 232 233 223 197 192 185 190 200 202 198
324 317 311 309 307 304 304 301 296 293 289 285 281 278 271 267 264 262 258 256 249 244 241 235 227 221 218 220 220 215 219 216 220 224 228 233 232 225 211 191 192 200 205 200 198
323 319 318 315 312 310 306 300 296 296 292 286 283 279 271 267 259 255 253 253 248 236 241 242 233 221 218 218 216 214 215 215 221 230 230 233 231 223 216 192 192 199 209 202 203
326 322 320 318 315 312 308 302 301 297 289 286 281 275 270 269 262 253 247 247 246 243 235 237 240 231 218 219 214 216 212 216 220 222 225 229 230 222 218 203 196 193 206 201 205
329 327 320 319 320 319 323 322 317 310 303 293 285 279 273 266 264 257 250 245 244 243 239 235 238 239 219 214 218 214 211 213 218 221 224 227 224 220 214 200 195 191 200 202 202
336 327 321 325 329 331 329 319 317 314 302 292 286 280 275 266 260 257 254 249 249 250 256 243 238 236 226 211 213 211 211 211 215 220 222 224 222 208 216 203 197 192 198 201 201
336 332 332 340 346 339 334 330 328 322 311 300 294 285 274 264 258 254 252 255 257 255 262 252 232 229 228 213 209 211 209 210 213 218 222 219 215 207 215 208 199 199 201 202 205
337 336 348 357 355 350 345 341 333 326 320 308 300 287 277 270 259 260 255 258 258 252 253 247 226 220 220 214 208 209 210 210 212 215 220 218 209 204 205 205 203 201 201 206 206
341 342 354 358 1 3 357 348 341 332 327 307 298 287 260 263 262 261 253 256 256 252 252 236 236 211 210 207 206 205 209 209 212 214 216 212 203 196 195 204 201 201 207 208 209